OBJECT AF, 63239

Orbit data source: Space-Track

You're viewing an Uncataloged Satellite

Recently launched and/or uncataloged satellites may have evolving metadata. Metadata may include but not limited to: Owner, Maufacturer, Bus, Motor, and Mission.

OBJECT AF, 63239 is a satellite in SSO that was launched on Sat, 15 Mar 2025 UTC via an FALCON 9 launch vehicle from the Air Force Western Test Range (AFWTR). Unknown objects in Earth's orbit typically refer to objects detected orbiting the Earth but have not yet been identified or cataloged. These objects could be anything from previously untracked satellites, spent rocket stages, debris from satellite collisions, or even natural meteoroids temporarily captured by Earth's gravity.

Loading next visibility...
Identifier
63239, 2025-052AF
Orbit
SSO
Country
Flag of TBDTBD
Related business
None
Manufacturer
Unknown
Mission
Operational Amateur Communications
Bus & Motor
Unknown
Mass
Unknown
Launch date (UTC)
2025-03-15 (7 months ago)
Launch vehicle
FALCON 9
Launch site
Air Force Western Test Range (AFWTR)
Object type
Unknown
Shape & HBR
Box, 0.1 m
Radar Cross Section
0.015 m², Small (<0.1 m²)

Expand to show TLE details & history
Last TLE update: 20 hours ago

TLE from 20 hours ago
0 OBJECT AF
1 63239U 25052AF  25287.25345602  .00018072  00000-0  78474-3 0  9999
2 63239  97.4172 179.2154 0005546 304.6921  55.3792 15.22355653 32484
Epoch: 2025-10-14T06:04Z
TLE epoch observation values (Epoch: 2025-10-14T06:04:58.600Z)
Latitude
-0.00004°
Longitude
64.9267°
Altitude
499.665 km
Speed
7.616 km/s
True Right ascension
11h 56m 51s
True Declination
0° 00' 00"
Sunlit
Object was in daylight at epoch
Visualization orbit readout
Latitude
Unknown
Longitude
Unknown
Altitude
Unknown
Speed
Unknown
Apparent Right ascension
Unknown
Apparent Declination
Unknown
Sunlit
N/A
Visualization observer readout
Local Sidereal Time
20:39:17
Azimuth
Unknown
Elevation
Unknown
Doppler factor
Unknown
Orbital elements
Apogee altitude
499.513 km
Perigee altitude
491.888 km
Semi-major axis
6,873.838 km
Eccentricity
0.00055
Inclination
97.4172°
RAAN
179.2154°
Arg. of periapsis
304.6921°
True anomaly
55.43152°
Mean anomaly
55.3792°
Eccentric anomaly
55.40536°
Mean motion
3.80842 °/min
Orbital period
94.53 mins
BSTAR
0.00078474
Loading maneuver chart data...
Computing Atmospheric mass density...
Loading historical data...
Loading historical data...
Loading historical data...
Loading historical data...
Loading historical data...
Loading historical data...
Loading historical data...

Documentation

Showing up to 5 results
|